[[{"header":{"parameterUnit":"m.s-1","parameterCategory":1,"la1":30.2991,"la2":30.254,"lo1":-89.0895,"lo2":-89.0444,"dy":0.0017,"dx":0.0017,"nx":28,"ny":28,"refTime":"2025-02-24T03:00:00:Z","depth":0,"parameterNumber":2,"parameterNumberName":"U-component_of_WINDS"},"data":[0,0,0,0,0,0,0,0,0,0,0,0,0,0,0,0,0,0,0,0,0,0,0,0,0,0,0,0,0,0,0,0,0,0,0,0,0,0,0,0,0,0,0,0,0,0,0,0,0,0,0,0,0,0,0,0,0,0,-7.9191,-7.9192,0,-7.924,-7.9241,-7.9241,-7.9027,-7.902,-7.9014,-7.9008,-7.9058,-7.9065,-7.9072,0,0,0,0,0,0,0,0,0,0,0,0,0,-7.8913,-7.8919,-7.9191,-7.9192,-7.9193,-7.924,-7.9241,-7.9241,-7.9028,-7.902,-7.9012,-7.9005,-7.9055,-7.9064,-7.9072,0,0,0,0,0,0,0,0,0,0,0,0,0,-7.9005,-7.8921,-7.9191,-7.9092,-7.9083,-7.924,-7.9241,-7.9241,-7.9029,-7.902,-7.901,-7.9002,-7.9052,-7.9063,-7.9074,-7.9328,0,0,-7.9106,-7.9111,0,0,0,0,0,0,0,0,-7.9,-7.9015,-7.9106,-7.9099,-7.909,-7.9118,-7.916,-7.9271,-7.9032,-7.905,-7.9008,-7.8997,-7.9085,-7.9093,-7.9122,-7.933,-7.9333,-7.9107,-7.9114,-7.9118,-7.9121,0,0,0,0,0,0,0,-7.8994,-7.9012,-7.921,-7.9107,-7.9098,-7.9044,-7.9047,-7.918,-7.912,-7.9047,-7.9032,-7.9041,-7.9079,-7.9113,-7.9122,-7.9333,-7.9107,-7.9117,-7.9123,-7.9127,-7.9751,-7.9761,0,0,0,0,0,0,-7.9001,-7.9008,-7.9209,-7.9212,-7.9021,-7.9057,-7.906,-7.9118,-7.9118,-7.9108,-7.9049,-7.9031,-7.9099,-7.911,-7.9123,-7.9419,-7.9118,-7.9128,-7.9135,-7.9741,-7.9753,-7.9764,0,0,0,0,0,0,-7.8996,-7.9021,-7.9207,-7.9106,-7.9125,-7.9072,-7.9139,-7.9124,-7.9157,-7.9119,-7.9107,-7.9094,-7.9092,-7.9108,-7.9278,-7.9417,-7.9133,-7.9143,-7.9729,-7.9745,-7.9759,-8.0015,0,0,0,0,0,0,-7.8988,-7.902,-7.9116,-7.911,-7.9132,-7.9362,-7.9147,-7.9132,-7.9176,-7.9153,-7.9158,-7.915,-7.9086,-7.9263,-7.9289,-7.9427,-7.9151,-7.9716,-7.9736,-7.9754,-7.9993,-8.0037,-8.0074,0,0,0,0,0,-7.8979,-7.9187,-7.9122,-7.9148,-7.9251,-7.9371,-7.9383,-7.9305,-7.9189,-7.9284,-7.926,-7.915,-7.9399,-7.9283,-7.931,-7.9453,-7.9707,-7.973,-7.9752,-7.9975,-8.0028,-8.0073,0,0,0,0,0,0,-7.921,-7.9184,-7.9112,-7.9324,-7.9351,-7.9334,-7.9453,-7.9364,-7.9425,-7.9401,-7.9302,-7.9305,-7.9492,-7.949,-7.9361,-7.9699,-7.9533,-7.9562,-7.9693,-7.9743,-7.9782,-7.9777,-7.916,0,0,0,0,0,-7.9286,-7.9386,-7.9357,-7.9547,-7.9564,-7.9508,-7.9556,-7.9494,-7.9519,-7.9529,-7.9516,-7.9544,-7.9628,-7.9686,-7.9761,-7.9993,-7.999,-8.0105,-8.0146,-8.0179,-8.0204,-8.0325,-8.0375,-7.9839,-7.9839,-7.9838,0,0,-7.9443,-7.9441,-7.951,-7.9593,-7.9607,-7.9712,-7.9518,-7.9638,-7.9714,-7.9547,-7.9706,-7.9699,-7.9723,-7.9925,-8.0014,-7.9929,-8.0352,-8.0208,-8.0234,-8.0242,-8.0353,-8.0404,-8.0449,-7.9854,-7.9851,-7.9849,0,0,-7.9782,-7.9792,-7.995,-7.9968,-7.9992,-7.9952,-7.9991,-7.9988,-7.9977,-8.0136,-8.0012,-8.0102,-8.025,-8.0272,-8.0302,-8.0652,-8.0552,-8.068,-8.0888,-8.1007,-8.1049,-8.1086,-8.1208,-8.1254,-8.0706,-8.0707,-8.0707,0,-7.9974,-8.0127,-8.0042,-8.017,-8.0209,-8.0064,-8.0223,-8.0245,-8.0293,-8.0323,-8.0228,-8.041,-8.0417,-8.0621,-8.0706,-8.0737,-8.0776,-8.0677,-8.105,-8.1086,-8.1119,-8.1235,-8.1281,-8.0722,-8.072,-8.0719,-8.0717,0,-8.0361,-8.047,-8.0594,-8.0644,-8.0698,-8.0841,-8.0777,-8.0842,-8.0776,-8.0747,-8.0911,-8.0914,-8.0986,-8.1031,-8.0968,-8.1227,-8.1173,-8.1067,-8.0897,-8.1187,-8.1293,-8.1337,-8.0743,-8.0738,-8.0733,-8.073,0,0,-8.0844,-8.0846,-8.0892,-8.0913,-8.0929,-8.1011,-8.1148,-8.1219,-8.1276,-8.1315,-8.1426,-8.1555,-8.1456,-8.1491,-8.143,-8.1535,-8.1809,-8.1414,-8.1413,-8.1485,-8.2092,-8.217,-8.2223,-8.1744,-8.1753,-8.1759,-8.2089,0,-8.1174,-8.1406,-8.1334,-8.1568,-8.1666,-8.1531,-8.165,-8.1673,-8.165,-8.173,-8.1704,-8.1797,-8.166,-8.168,-8.1779,-8.1755,-8.1929,-8.173,-8.1845,-8.185,-8.1839,-8.2279,-8.2362,-8.2672,-8.213,-8.2137,-8.2142,0,-8.1589,-8.1644,-8.1888,-8.1888,-8.1926,-8.2034,-8.2093,-8.2173,-8.2196,-8.2172,-8.2213,-8.2129,-8.2262,-8.2096,-8.2277,-8.2144,-8.2187,-8.2183,-8.2193,-8.2198,-8.2011,-8.2293,-8.277,-8.2816,-8.2208,-8.2202,-8.2198,0,-8.1913,-8.2049,-8.2212,-8.2234,-8.2238,-8.2317,-8.2323,-8.2337,-8.2384,-8.2437,-8.2467,-8.2535,-8.2572,-8.2626,-8.2563,-8.2448,-8.2754,-8.2582,-8.2736,-8.2738,-8.2804,-8.28,-8.3292,-8.2838,-8.2837,-8.2836,-8.2835,0,-8.2287,-8.2441,-8.2357,-8.2458,-8.2626,-8.2543,-8.2712,-8.2702,-8.2716,-8.2812,-8.27,-8.2792,-8.2705,-8.2789,-8.2741,-8.2898,-8.2916,-8.2899,-8.2884,-8.2908,-8.2909,-8.2932,-8.2907,-8.2849,-8.2846,-8.2843,-8.2841,0,-8.2676,-8.2627,-8.2795,-8.2786,-8.2787,-8.2912,-8.2903,-8.2996,-8.2966,-8.3088,-8.3112,-8.3065,-8.3158,-8.3102,-8.3197,-8.3165,-8.3368,-8.3325,-8.336,-8.3347,-8.3504,-8.3489,-8.4024,-8.4089,-8.3597,-8.3602,-8.3606,0,-8.2917,-8.3032,-8.3036,-8.3091,-8.3104,-8.3197,-8.3244,-8.3168,-8.3222,-8.3258,-8.3346,-8.343,-8.3492,-8.3648,-8.3622,-8.3694,-8.3649,-8.3832,-8.3659,-8.3679,-8.3649,-8.3641,-8.3652,-8.3866,-8.3872,-8.3877,-8.388,0,-8.3348,-8.3317,-8.3391,-8.3458,-8.3518,-8.3566,-8.3605,-8.3658,-8.3581,-8.3648,-8.3742,-8.3791,-8.3888,-8.3972,-8.4033,-8.4038,-8.3947,-8.3936,-8.3975,-8.3998,-8.4013,-8.4004,-8.3452,-8.3923,-8.3919,-8.3916,-8.3913,-8.3912,-8.3667,-8.3763,-8.378,-8.3866,-8.3888,-8.3927,-8.4012,-8.3994,-8.4071,-8.4144,-8.4094,-8.4205,-8.4226,-8.4298,-8.4315,-8.4401,-8.4326,-8.4384,-8.4398,-8.4412,-8.4432,-8.4002,-8.4412,-8.4411,-8.4409,-8.4408,-8.4407,0,-8.409,-8.4095,-8.4175,-8.4233,-8.4301,-8.421,-8.4249,-8.4311,-8.441,-8.4438,-8.4502,-8.461,-8.4691,-8.4673,-8.4746,-8.4818,-8.4778,-8.4839,-8.4831,-8.4834,-8.4496,-8.4453,-8.487,-8.487,-8.487,-8.487,-8.487,-8.487,-8.4317,-8.4474,-8.4446,-8.4613,-8.4616,-8.4724,-8.4753,-8.4789,-8.481,-8.4936,-8.5003,-8.499,-8.4999,-8.5072,-8.5143,-8.5135,-8.5166,-8.5243,-8.522,-8.4904,-8.4858,-8.4814,-8.4773,-8.5251,-8.5251,-8.555,-8.5553,-8.5555]},{"header":{"parameterUnit":"m.s-1","parameterCategory":1,"la1":30.2991,"la2":30.254,"lo1":-89.0895,"lo2":-89.0444,"dy":0.0017,"dx":0.0017,"nx":28,"ny":28,"refTime":"2025-02-24T03:00:00:Z","depth":0,"parameterNumber":3,"parameterNumberName":"V-component_of_WINDS"},"data":[0,0,0,0,0,0,0,0,0,0,0,0,0,0,0,0,0,0,0,0,0,0,0,0,0,0,0,0,0,0,0,0,0,0,0,0,0,0,0,0,0,0,0,0,0,0,0,0,0,0,0,0,0,0,0,0,0,0,2.9355,2.9357,0,2.9513,2.9515,2.9517,2.9559,2.9558,2.9557,2.9557,2.9712,2.9717,2.9722,0,0,0,0,0,0,0,0,0,0,0,0,0,2.9085,2.909,2.9355,2.9357,2.9359,2.9513,2.9515,2.9517,2.9559,2.9558,2.9557,2.9556,2.9711,2.9717,2.9723,0,0,0,0,0,0,0,0,0,0,0,0,0,2.9218,2.9091,2.9355,2.9399,2.9405,2.9512,2.9515,2.9518,2.956,2.9558,2.9557,2.9556,2.9709,2.9716,2.9723,2.9797,0,0,2.9746,2.9749,0,0,0,0,0,0,0,0,2.9211,2.9228,2.9391,2.9396,2.9403,2.9515,2.9477,2.9611,2.956,2.9501,2.9557,2.9555,2.9647,2.966,2.9692,2.9804,2.9811,2.9747,2.9751,2.9755,2.9757,0,0,0,0,0,0,0,2.9201,2.9222,2.9418,2.9393,2.94,2.9409,2.9426,2.9503,2.9579,2.9506,2.9509,2.9528,2.965,2.9685,2.9696,2.9813,2.9747,2.9753,2.9758,2.9761,2.9992,2.9994,0,0,0,0,0,0,2.9185,2.9214,2.9413,2.9422,2.9302,2.9415,2.9435,2.948,2.9579,2.9593,2.9529,2.9529,2.9673,2.9687,2.9702,2.9793,2.9755,2.9762,2.9766,2.999,2.9992,2.9994,0,0,0,0,0,0,2.9179,2.9203,2.9406,2.9319,2.9346,2.9421,2.9472,2.9484,2.9519,2.9596,2.961,2.955,2.9672,2.9691,2.9773,2.9799,2.9765,2.9772,2.9988,2.9991,2.9993,2.9977,0,0,0,0,0,0,2.9172,2.92,2.923,2.932,2.935,2.9476,2.9474,2.9488,2.9532,2.9534,2.962,2.9633,2.9673,2.9762,2.9781,2.9809,2.9778,2.9986,2.999,2.9992,2.9976,2.9979,2.9981,0,0,0,0,0,2.9162,2.9219,2.9232,2.9255,2.939,2.9478,2.9495,2.9542,2.9534,2.9564,2.9614,2.963,2.9794,2.977,2.9791,2.9822,2.9985,2.9989,2.9992,2.9974,2.9978,2.9981,0,0,0,0,0,0,2.9128,2.9231,2.9247,2.9334,2.9397,2.9485,2.9524,2.9544,2.9609,2.9608,2.9661,2.968,2.9758,2.9799,2.977,2.9898,2.9889,2.9898,2.9868,2.9873,2.9876,2.9863,2.9784,0,0,0,0,0,2.9132,2.9197,2.9282,2.9351,2.9382,2.9448,2.9488,2.9518,2.9585,2.9611,2.9667,2.9729,2.9794,2.9836,2.9901,2.9983,3.0001,3.0014,3.0017,3.0019,3.0025,3.007,3.0076,3.0006,3.0006,3.0006,0,0,2.9138,2.9202,2.924,2.9346,2.9398,2.9462,2.9469,2.9537,2.9585,2.9621,2.9701,2.9744,2.9817,2.9899,2.9938,2.9935,3.0049,3.0024,3.0025,3.003,3.0074,3.0081,3.0086,3.0009,3.0008,3.0008,0,0,2.9182,2.9239,2.9302,2.9354,2.9434,2.9478,2.9493,2.9578,2.9608,2.9691,2.9719,2.9775,2.9887,2.9938,2.9978,3.0042,3.0058,3.0061,3.0075,3.0118,3.0124,3.0129,3.015,3.0157,3.0067,3.0067,3.0067,0,2.9179,2.9279,2.9331,2.9398,2.9443,2.9481,2.9544,2.9592,2.9688,2.9717,2.9714,2.9855,2.9907,3.0,3.0016,3.0048,3.0065,3.0051,3.0119,3.0125,3.013,3.0151,3.0159,3.0067,3.0067,3.0067,3.0067,0,2.9271,2.9339,2.9381,2.9474,2.9524,2.9589,2.9648,2.9692,2.9719,2.9762,2.9844,2.9908,2.9986,3.0011,3.0037,3.0107,3.0103,3.0109,3.0101,3.0136,3.0156,3.0164,3.0066,3.0067,3.0067,3.0067,0,0,2.9296,2.9419,2.9433,2.9476,2.9567,2.962,2.9685,2.9764,2.9799,2.9864,2.9919,3.0014,3.002,3.0065,3.0097,3.0135,3.0179,3.0136,3.0139,3.014,3.0259,3.0252,3.0261,3.0192,3.0194,3.0195,3.0252,0,2.935,2.9471,2.9519,2.9616,2.9679,2.9716,2.9773,2.9834,2.9876,2.9934,2.998,3.0046,3.005,3.0077,3.0117,3.0165,3.0203,3.0162,3.0241,3.0243,3.0219,3.0272,3.0265,3.0316,3.0261,3.0262,3.0263,0,2.9429,2.9497,2.96,2.9683,2.9712,2.9762,2.9837,2.9893,2.9962,2.999,3.0042,3.0072,3.014,3.0129,3.0222,3.0193,3.0228,3.0257,3.026,3.0267,3.0253,3.0278,3.0334,3.034,3.0276,3.0275,3.0274,0,2.9435,2.9552,2.9628,2.9664,2.9764,2.9798,2.9841,2.9909,2.9953,3.0018,3.0046,3.0118,3.0156,3.021,3.0258,3.0246,3.0346,3.0339,3.0368,3.0367,3.0386,3.0384,3.0445,3.0412,3.0412,3.0412,3.0412,0,2.9488,2.9549,2.9632,2.9679,2.9748,2.9803,2.9869,2.9914,2.9975,3.003,3.0067,3.0117,3.0178,3.0236,3.0274,3.0344,3.0361,3.0384,3.0393,3.038,3.0376,3.0402,3.0398,3.0414,3.0413,3.0413,3.0413,0,2.9505,2.9564,2.9649,2.9738,2.9761,2.9808,2.9882,2.9928,2.9973,3.0041,3.0061,3.013,3.0199,3.0253,3.0343,3.0369,3.0442,3.0453,3.0419,3.0423,3.0449,3.0445,3.0527,3.054,3.0499,3.05,3.05,0,2.9535,2.9583,2.9677,2.9717,2.976,2.9825,2.987,2.9926,2.9971,3.0054,3.0089,3.0162,3.0223,3.0332,3.0389,3.0457,3.0469,3.0493,3.0479,3.0464,3.0467,3.0462,3.0466,3.0494,3.0494,3.0494,3.0494,0,2.958,2.9607,2.9671,2.9746,2.98,2.9861,2.9922,2.9953,3.002,3.0068,3.0141,3.0188,3.0281,3.0352,3.0427,3.0469,3.0492,3.0498,3.0508,3.0494,3.0472,3.0482,3.0421,3.0496,3.0495,3.0495,3.0495,3.0495,2.9603,2.9647,2.972,2.9791,2.9844,2.99,2.9948,2.9999,3.0061,3.0143,3.0172,3.0246,3.0313,3.0417,3.0459,3.0517,3.0517,3.0532,3.0536,3.0538,3.0536,3.0465,3.0531,3.0531,3.0531,3.0531,3.0531,0,2.9648,2.9697,2.9762,2.9848,2.9903,2.9924,2.9993,3.0037,3.0102,3.0165,3.0225,3.0307,3.0376,3.0439,3.0511,3.0545,3.0557,3.0561,3.0558,3.0567,3.0532,3.0515,3.055,3.055,3.055,3.055,3.055,3.055,2.9678,2.9754,2.9789,2.989,2.9939,3.0014,3.0051,3.0103,3.0153,3.0245,3.0303,3.0345,3.0407,3.0483,3.0547,3.0563,3.0587,3.0588,3.0607,3.0572,3.057,3.0567,3.0552,3.0594,3.0594,3.0637,3.0638,3.0638]}]]